Puyallup, WA
on Sunday, November 11, 2012

Sunday
Previous Day Next Day
Daily Summary
 ActualAverage (KSEA)Record (KSEA)
Temperature
Mean Temperature °F 46°F  
Max Temperature 46°F 52°F 65°F (1990)
Min Temperature 26°F 41°F 15°F (1955)
Degree Days
Heating Degree Days 30 19  
Month to date heating degree days 192  
Since 1 July heating degree days 789  
Cooling Degree Days 0 0  
Month to date cooling degree days 0  
Year to date cooling degree days 189  
Moisture
Dew Point 31°F   
Average Humidity 91    
Maximum Humidity 100    
Minimum Humidity 66    
Precipitation
Precipitation 0.00 in 0.23 in 1.48 in (1973)
Month to date precipitation 2.27  
Year to date precipitation 27.84  
Snow
Snow 0.00 in in 1.40 in (1955)
Month to date snowfall  
Since 1 July snowfall  
Snow Depth in   
Wind
Wind Speed 0 mph   
Max Wind Speed 0 mph   
Max Gust Speed mph   
Visibility 10 miles   
Events Rain   

Key: T is trace of precipitation, MM is missing value
Source: NWS Daily Summary
Time(PST)TemperatureDew PointHumidity Pressure Visibility Wind DirectionWind SpeedGust SpeedPrecipitationEvents Conditions
12:15 AM 28.4°F 28.4°F 100% 30.22 in 10.0 miles Calm Calm - N/A   Clear
12:35 AM 26.6°F 26.6°F 100% 30.22 in 10.0 miles Calm Calm - N/A   Clear
12:55 AM 28.4°F 28.4°F 100% 30.22 in 10.0 miles Calm Calm - N/A   Clear
1:15 AM 28.4°F 28.4°F 100% 30.23 in 10.0 miles Calm Calm - N/A   Clear
1:35 AM 28.4°F 28.4°F 100% 30.23 in 10.0 miles Calm Calm - N/A   Mostly Cloudy
1:55 AM 28.4°F 28.4°F 100% 30.23 in 10.0 miles Calm Calm - N/A   Partly Cloudy
2:15 AM 26.6°F 26.6°F 100% 30.23 in 10.0 miles Calm Calm - N/A   Partly Cloudy
2:35 AM 28.4°F 28.4°F 100% 30.23 in 10.0 miles Calm Calm - N/A   Mostly Cloudy
2:55 AM 30.2°F 28.4°F 93% 30.22 in 10.0 miles Calm Calm - N/A   Mostly Cloudy
3:15 AM 30.2°F 30.2°F 100% 30.22 in 10.0 miles Calm Calm - N/A   Mostly Cloudy
3:35 AM 30.2°F 30.2°F 100% 30.21 in 10.0 miles Calm Calm - N/A   Mostly Cloudy
3:55 AM 32.0°F 30.2°F 93% 30.21 in 10.0 miles Calm Calm - N/A   Clear
4:15 AM 30.2°F 30.2°F 100% 30.21 in 10.0 miles Calm Calm - N/A   Clear
4:35 AM 32.0°F 30.2°F 93% 30.21 in 10.0 miles Calm Calm - N/A   Scattered Clouds
4:55 AM 32.0°F 30.2°F 93% 30.21 in 10.0 miles Calm Calm - N/A   Mostly Cloudy
5:35 AM 32.0°F 30.2°F 93% 30.20 in 10.0 miles Calm Calm - N/A   Overcast
5:55 AM 32.0°F 30.2°F 93% 30.20 in 10.0 miles Calm Calm - N/A   Overcast
6:15 AM 32.0°F 32.0°F 100% 30.20 in 10.0 miles Calm Calm - N/A   Mostly Cloudy
6:35 AM 32.0°F 32.0°F 100% 30.20 in 10.0 miles Calm Calm - N/A   Mostly Cloudy
6:55 AM 32.0°F 32.0°F 100% 30.20 in 10.0 miles Calm Calm - N/A   Mostly Cloudy
7:15 AM 32.0°F 32.0°F 100% 30.20 in 10.0 miles Calm Calm - N/A   Overcast
7:55 AM 33.8°F 32.0°F 93% 30.21 in 10.0 miles Calm Calm - N/A   Overcast
8:15 AM 33.8°F 32.0°F 93% 30.21 in 10.0 miles Calm Calm - N/A   Overcast
8:35 AM 35.6°F 32.0°F 87% 30.21 in 10.0 miles Calm Calm - N/A   Mostly Cloudy
8:55 AM 35.6°F 32.0°F 87% 30.21 in 10.0 miles Calm Calm - N/A   Mostly Cloudy
9:15 AM 37.4°F 32.0°F 81% 30.21 in 10.0 miles Calm Calm - N/A   Mostly Cloudy
9:35 AM 37.4°F 32.0°F 81% 30.21 in 10.0 miles Calm Calm - N/A   Scattered Clouds
9:55 AM 39.2°F 32.0°F 75% 30.21 in 10.0 miles Calm Calm - N/A Rain Light Rain
10:15 AM 39.2°F 35.6°F 87% 30.21 in 10.0 miles Calm Calm - N/A   Scattered Clouds
10:35 AM 39.2°F 35.6°F 87% 30.21 in 10.0 miles Calm Calm - N/A   Partly Cloudy
10:55 AM 41.0°F 35.6°F 81% 30.21 in 10.0 miles Calm Calm - N/A   Scattered Clouds
11:15 AM 42.8°F 35.6°F 76% 30.21 in 10.0 miles Calm Calm - N/A   Partly Cloudy
11:35 AM 44.6°F 35.6°F 71% 30.21 in 10.0 miles Calm Calm - N/A   Partly Cloudy
11:55 AM 44.6°F 35.6°F 71% 30.20 in 10.0 miles Calm Calm - N/A Rain Light Rain
12:15 PM 46.4°F 35.6°F 66% 30.20 in 10.0 miles Calm Calm - N/A   Partly Cloudy
Moon Phase
Nov. 11 Nov. 13 Nov. 20 Nov. 28 Dec. 06
Sunrise:07:07 AM (PST) Moon Rise:04:20 AM (PST)11/11
Sunset:04:38 PM (PST) Moon Set:03:11 PM (PST)11/11

Copyright © 2014 The Weather Underground, Inc.